Find OneWeb SL0294

NORAD ID: 49083 Int'l Des: 2021-075 Owner: ONEWEBN Country: UK Constellation: oneweb operational
LEOCIRCULARPOLARONEWEB_TYPE

实时位置

正在加载3D地球...

关于 OneWeb SL0294

正在加载描述...

即将过境

Passes for default location (London). Set your location on the main map for personalized predictions.

高度历史

Loading altitude history...

两行轨道根数

1 49083U 21075J 26123.88422074 .00000238 00000-0 62602-3 0 9990
2 49083 87.8986 359.4645 0001531 73.6450 286.4847 13.12443700228762
Epoch: May 3, 2026 • Age: 11 hours

当前状态

高度 1216.4 km
速度 7.25 km/s
星下点 -1.05°S, 14.19°E
发射日期 Aug 21, 2021
运行时间 4.7 years
类型 internet

技术详情

分类 Payload
质量 148.00 kg
干质量 140.00 kg
总质量 148.00 kg
长度 1.30 m
直径 1.00 m
跨度 5.00 m
形状 Trapezoid+2 pan
制造商 ONEWUS
平台类型 ARROW
阶段状态 In Orbit
所有者/国家 ONEWEBN/UK

Most Searched